Weather History for KLFK - October, 2012

Change the Weather History Date:

Wednesday, October 24, 2012

  Actual Average Record
Temperature  
Mean Temperature 77 °F 65 °F  
Max Temperature 87 °F 77 °F 91 °F (1931)
Min Temperature 66 °F 53 °F 31 °F (1908)
Degree Days  
Heating Degree Days 0 3  
Month to date heating degree days 24 38  
Since 1 July heating degree days 24 42  
Cooling Degree Days 12 3  
Month to date cooling degree days 159 127  
Year to date cooling degree days 3111 2524  
Growing Degree Days 25 (Base 50)    
Moisture  
Dew Point 67 °F    
Average Humidity 76    
Maximum Humidity 97    
Minimum Humidity 55    
Precipitation  
Precipitation 0.00 in 0.18 in 1.98 in (1954)
Month to date precipitation 0.17 3.62  
Year to date precipitation 37.84 38.29  
Snow  
Snow 0.00 in - - ()
Month to date snowfall 0.0  
Since 1 July snowfall 0.0  
Since 1 September snowfall 0.0  
Snow Depth 0.00 in    
Sea Level Pressure  
Sea Level Pressure 29.98 in    
Wind  
Wind Speed 6 mph (SE)    
Max Wind Speed 14 mph    
Max Gust Speed 18 mph    
Visibility 6 miles    
Events Fog    
T = Trace of Precipitation, MM = Missing Value Source: NWS Daily Summary

Daily Weather History Graph

Daily Weather History Graph

Search for Another Location

Airport or City:

Trip Planner

Search our weather history database for the weather conditions in past years. The results will help you decide how hot, cold, wet, or windy it might be!

Date:

Astronomy

Oct. 24, 2012 Rise Set
Actual Time 7:28 AM CDT 6:37 PM CDT
Civil Twilight 7:04 AM CDT 7:01 PM CDT
Nautical Twilight 6:35 AM CDT 7:30 PM CDT
Astronomical Twilight 6:07 AM CDT 7:58 PM CDT
Moon 3:37 PM CDT (10/24) 2:43 AM CDT (10/24)
Length of Visible Light 11h 57m
Length of Day
11h 08m
Waxing Gibbous, 76% of the Moon is Illuminated
Oct 24
Waxing Gibbous
Oct 29
Full
Nov 6
Last Quarter
Nov 13
New
Nov 20
First Quarter

Hourly Weather History & Observations

Time (CDT) Temp. Heat Index Dew Point Humidity Pressure Visibility Wind Dir Wind Speed Gust Speed Precip Events Conditions
1:53 AM 66.9 °F - 64.0 °F 90% 29.97 in 7.0 mi SSE 4.6 mph - N/A   Clear
2:24 AM 68.0 °F - 64.4 °F 88% 29.98 in 4.0 mi SSE 3.5 mph - N/A   Mostly Cloudy
2:39 AM 68.0 °F - 66.2 °F 94% 29.98 in 2.0 mi Calm Calm - N/A   Overcast
2:53 AM 69.1 °F - 66.0 °F 90% 29.97 in 0.8 mi SSE 3.5 mph - N/A   Overcast
3:08 AM 69.8 °F - 66.2 °F 88% 29.98 in 0.2 mi Calm Calm - N/A Fog Fog
3:28 AM 69.8 °F - 66.2 °F 88% 29.98 in 0.2 mi Calm Calm - N/A Fog Fog
3:53 AM 69.1 °F - 66.9 °F 93% 29.97 in 0.2 mi SE 3.5 mph - N/A Fog Fog
4:53 AM 70.0 °F - 66.9 °F 90% 29.97 in 0.2 mi SSE 5.8 mph - N/A Fog Fog
5:00 AM 69.8 °F - 68.0 °F 94% 29.99 in 0.2 mi SSE 5.8 mph - N/A Fog Fog
5:53 AM 70.0 °F - 68.0 °F 93% 29.99 in 0.2 mi SSE 6.9 mph - N/A Fog Fog
6:06 AM 71.6 °F - 68.0 °F 88% 30.01 in 0.5 mi SSE 6.9 mph - N/A Fog Fog
6:21 AM 71.6 °F - 68.0 °F 88% 30.01 in 1.8 mi SSE 4.6 mph - N/A   Overcast
6:25 AM 71.6 °F - 68.0 °F 88% 30.01 in 3.0 mi SSE 4.6 mph - N/A   Overcast
6:53 AM 70.0 °F - 68.0 °F 93% 30.01 in 7.0 mi ESE 3.5 mph - N/A   Overcast
7:25 AM 71.6 °F - 68.0 °F 88% 30.02 in 7.0 mi ESE 3.5 mph - N/A   Overcast
7:53 AM 71.1 °F - 68.0 °F 90% 30.01 in 4.0 mi SE 4.6 mph - N/A   Overcast
8:08 AM 71.6 °F - 69.8 °F 94% 30.02 in 4.0 mi ESE 5.8 mph - N/A   Overcast
8:53 AM 72.0 °F - 69.1 °F 91% 30.03 in 4.0 mi SE 6.9 mph - N/A   Overcast
10:53 AM 75.9 °F - 69.1 °F 79% 30.04 in 10.0 mi SE 8.1 mph - N/A   Overcast
11:00 AM 75.2 °F - 69.8 °F 83% 30.05 in 10.0 mi SE 8.1 mph - N/A   Overcast
11:15 AM 78.8 °F - 69.8 °F 74% 30.05 in 10.0 mi SSE 6.9 mph - N/A   Mostly Cloudy
11:22 AM 78.8 °F - 69.8 °F 74% 30.04 in 10.0 mi SSE 6.9 mph - N/A   Mostly Cloudy
11:33 AM 78.8 °F - 69.8 °F 74% 30.04 in 10.0 mi SE 6.9 mph - N/A   Scattered Clouds
11:43 AM 80.6 °F 83.9 °F 69.8 °F 70% 30.03 in 10.0 mi SSE 10.4 mph - N/A   Mostly Cloudy
11:53 AM 80.1 °F 82.9 °F 69.1 °F 69% 30.02 in 10.0 mi SSE 6.9 mph - N/A   Mostly Cloudy
3:53 PM 84.2 °F 86.6 °F 66.2 °F 55% 29.93 in 10.0 mi ESE 10.4 mph - N/A   Mostly Cloudy
4:53 PM 84.9 °F 87.1 °F 66.0 °F 53% 29.91 in 10.0 mi SE 9.2 mph - N/A   Clear
5:53 PM 82.0 °F 84.1 °F 66.0 °F 58% 29.91 in 10.0 mi ESE 8.1 mph - N/A   Clear
6:53 PM 75.9 °F - 66.0 °F 71% 29.90 in 10.0 mi ESE 5.8 mph - N/A   Clear
7:53 PM 73.9 °F - 66.0 °F 76% 29.92 in 10.0 mi SE 3.5 mph - N/A   Clear
8:53 PM 73.0 °F - 66.0 °F 79% 29.93 in 10.0 mi SE 4.6 mph - N/A   Clear
9:53 PM 71.1 °F - 66.0 °F 84% 29.94 in 10.0 mi SE 4.6 mph - N/A   Clear
10:53 PM 72.0 °F - 66.9 °F 84% 29.93 in 10.0 mi SE 5.8 mph - N/A   Clear
11:53 PM 71.1 °F - 66.9 °F 87% 29.93 in 10.0 mi SE 3.5 mph - N/A   Clear